SWISSCUBE (35932 NORAD) Tracking and Keplerian Element Data

This shows tracking and keplerian element data for the satellite.

Feedback or suggestion? Click here.




ElementValue
Catalog35932
NameSWISSCUBE
Epoch Orbit78127
Epoch Day160.11146478
Epoch Year2024
RAAN43.2416
Inclination98.4725
Eccentricity0.0007232
Argument of Perigee357.7233
Mean Anonmoly2.3932
Mean Motion14.59068828
Decay Rate2.299E-05
L11 35932U 09051B 24160.11146478 .00002299 00000+0 49904-3 0 9992
L22 35932 98.4725 43.2416 0007232 357.7233 2.3932 14.59068828781278



Live tracking and technical data element details for SWISSCUBE (NORAD 35932). SWISSCUBE can be tracked NOW for your location showing map with azimuth and elevation plus other details from your city location.







IsCatalogInMostPopularTable: catalog: 35932, numindb: 25484
Update: records affected: 1



GetName: 35932 SWISSCUBE

Hit Count: updated at: Tue, 17 Sep 2024 12:30:51 GMT